{"data":{"norad_id":60721,"epoch":"2026-05-25T04:04:48.297216Z","epoch_age_seconds":53290,"freshness":"FRESH","line1":"1 60721U 24152B   26145.17000344  .00000475  00000+0  87825-5 0  9997","line2":"2 60721  53.1588  99.4967 0001019  68.2603 291.8523 15.69707488100846","mean_motion":15.69707488,"eccentricity":0.0001019,"inclination_deg":53.1588,"raan_deg":99.4967,"arg_perigee_deg":68.2603,"mean_anomaly_deg":291.8523,"bstar":8.7825e-6,"rev_number":10084,"period_min":91.73683702272,"perigee_km":359.04734976316,"apogee_km":360.42052786049,"semimajor_km":6737.8709388118,"source":"CELESTRAK","updated_at":"2026-05-25T13:38:19.283522Z"}}